Regional Weather Roundup
Issued by NWS

Home | Current Version | Previous Version | Graphics & Text | Print | Product List | Glossary On
Versions: 1 2 3 4 5 6 7 8 9 10 11 12 13 14 15 16 17 18 19 20 21 22 23 24 25 26 27 28 29 30 31 32 33 34 35 36 37 38 39 40 41 42 43 44 45 46 47 48 49 50
000
ASUS43 KIND 021909
RWRIN

WEATHER ROUNDUP FOR INDIANA
NATIONAL WEATHER SERVICE INDIANAPOLIS IN
200 PM EST MON MAR 02 2015

NOTE: "FAIR" INDICATES FEW OR NO CLOUDS BELOW 12,000 FEET WITH NO
SIGNIFICANT WEATHER AND/OR OBSTRUCTIONS TO VISIBILITY.

* - STATION DOES NOT REPORT WEATHER SUCH AS PRECIPITATION OR FOG.

+ - STATION NOT QUALITY CONTROLLED BY THE NATIONAL WEATHER SERVICE.
    USE DATA WITH CAUTION...ESPECIALLY DEWPOINT AND RELATIVE
    HUMIDITY OBSERVATIONS.

INZ001>003-010>013-019-020-022000-
NORTHWEST INDIANA

CITY           SKY/WX    TMP DP  RH WIND       PRES   REMARKS
GARY /AIRPORT/ MOSUNNY   30  12  47 NE5       30.51F WCI  25
KNOX *+          N/A     27   0  31 CALM      30.50F
LA PORTE +     SUNNY     30  16  54 SW5       30.49F WCI  25
MICHIGAN CITY+ SUNNY     28  12  50 CALM      30.50F
MONTICELLO +   FAIR      23  14  69 W3        30.51F
RENSSELAER +   SUNNY     28  19  69 CALM      30.50F
VALPARAISO     SUNNY     26  15  63 S8        30.49F WCI  18

$$

LMZ046-743>745-022000-
SOUTHERN LAKE MICHIGAN

STATION/POSITION TIME  TEMP WIND        PRES
                       AIR  DIR/SP/G
                 (UTC) (F)  (DEG/KT/KT) (MB)
MICHIGAN CITY    1900   24  240/  4/  5   N/A

$$

INZ004-005-014>016-021>024-022000-
NORTH CENTRAL INDIANA

CITY           SKY/WX    TMP DP  RH WIND       PRES   REMARKS
ELKHART        MOSUNNY   28  12  50 W7        30.48F WCI  21
GOSHEN         SUNNY     27  16  63 W8        30.47F WCI  19
LOGANSPORT +   SUNNY     23  16  74 S5        30.51F WCI  17
PERU/GRISSOM   SUNNY     24  15  67 SW3       30.48F
ROCHESTER +    SUNNY     30  19  64 SW5       30.50F WCI  25
SOUTH BEND     FAIR      29  15  56 NW8       30.49F WCI  21
WARSAW +       SUNNY     28  18  64 W5        30.48F WCI  23

$$

INZ006>009-017-018-025>027-022000-
NORTHEAST INDIANA

CITY           SKY/WX    TMP DP  RH WIND       PRES   REMARKS
ANGOLA *+      SUNNY     28  14  54 W7        30.46F WCI  21
AUBURN +       SUNNY     30  16  55 NW9       30.48F WCI  22
FORT WAYNE     PTSUNNY   28  15  58 W10       30.49F WCI  19
HUNTINGTON +   SUNNY     28  11  49 W3        30.49F

$$

INZ028-029-035-036-043>045-051>053-022000-
WEST CENTRAL INDIANA

CITY           SKY/WX    TMP DP  RH WIND       PRES   REMARKS
CRAWFORDSVL +  MOSUNNY   28  11  49 CALM      30.48F
GREENCASTLE +  MOSUNNY   30  12  47 E3        30.49F
LAFAYETTE      MOSUNNY   28  15  58 CALM      30.50F
TERRE HAUTE    SUNNY     31  15  52 E5        30.49F WCI  26

$$

INZ030>032-037>040-046>048-054>057-064-065-022000-
CENTRAL INDIANA

CITY           SKY/WX    TMP DP  RH WIND       PRES   REMARKS
ANDERSON       SUNNY     28  12  50 CALM      30.50
CP ATTERBURY + SUNNY     32  16  51 E6        30.50F WCI  26
FRANKFORT +    MOSUNNY   26  15  64 CALM      30.50F
GREENWOOD *+   MOSUNNY   28  10  47 E5        30.49F WCI  23
INDIANAPOLIS   PTSUNNY   30  16  56 CALM      30.47F
-EAGLE CREEK   MOSUNNY   31  13  47 CALM      30.48F
KOKOMO *+      SUNNY     25  16  68 CALM      30.50F
MARION +       SUNNY     22  13  68 CALM      30.51F
MT COMFORT *+  SUNNY     30   5  34 E3        30.49F
SHELBYVILLE    SUNNY     30  15  53 CALM      30.49F
ZIONSVILLE +   MOSUNNY   29  11  47 CALM      30.48F

$$

INZ033-034-041-042-049-050-058-059-022000-
EAST CENTRAL INDIANA

CITY           SKY/WX    TMP DP  RH WIND       PRES   REMARKS
MUNCIE         SUNNY     27  14  58 N7        30.49F WCI  19

$$

INZ060-061-067>069-081>083-085>088-022000-
SOUTHWEST INDIANA

CITY           SKY/WX    TMP DP  RH WIND       PRES   REMARKS
EVANSVILLE     SUNNY     35  18  49 E9        30.49F WCI  28
HUNTINGBURG *+ SUNNY     36  18  48 N7        30.48F
WASHINGTON +   SUNNY     29  15  55 NW5       30.49F WCI  24

$$

INZ062-063-066-070>080-084-089>092-022000-
SOUTH CENTRAL AND SOUTHEAST INDIANA

CITY           SKY/WX    TMP DP  RH WIND       PRES   REMARKS
BLOOMINGTON    FLURRIES  34  14  43 CALM      30.46F
NORTH VERNON + SUNNY     32  14  47 N5        30.48F WCI  27
SEYMOUR +      SUNNY     34  16  47 NW3       30.49F

$$




USA.gov is the U.S. government's official web portal to all federal, state and local government web resources and services.